Regional Weather Roundup
Issued by NWS

Home | Current Version | Previous Version | Text Only | Print | Product List | Glossary Off
Versions: 1 2 3 4 5 6 7 8 9 10 11 12 13 14 15 16 17 18 19 20 21 22 23 24 25 26 27 28 29 30 31 32 33 34 35 36 37 38 39 40 41 42 43 44 45 46 47 48 49 50

000
ASUS43 KMPX 230310
RWRMN
WEATHER ROUNDUP FOR MINNESOTA
NATIONAL WEATHER SERVICE TWIN CITIES/CHANHASSEN MN
900 PM CST WED NOV 22 2017


NOTE: "FAIR" INDICATES FEW OR NO CLOUDS BELOW 12,000 FEET WITH NO
SIGNIFICANT WEATHER AND/OR OBSTRUCTIONS TO VISIBILITY. N/A MEANS
CURRENT SKY AND/OR WEATHER CONDITIONS ARE NOT AVAILABLE.

MNZ060>063-068>070-230400-
   Twin Cities Metro

CITY           SKY/WX    TMP DP  RH WIND       PRES   REMARKS
TWIN CITIES    CLOUDY    32  18  56 S8        29.99F WCI  25
ST PAUL        CLOUDY    31  18  58 SE8       30.02F WCI  23
CRYSTAL        CLOUDY    31  14  49 SE7       29.98F WCI  24
BLAINE         CLOUDY    34  18  51 SE10      29.99F WCI  26
LAKEVILLE      CLOUDY    30  18  59 S7        29.99F WCI  23
EDEN PRAIRIE   CLOUDY    32  17  54 S7        29.97F WCI  26
SOUTH ST PAUL  CLOUDY    32  18  56 SE3       30.00F
LAKE ELMO      CLOUDY    32  19  59 S6        30.02S WCI  26
$$
MNZ001>005-007-008-013>017-022>024-027-028-230400-
   Northwest Minnesota

CITY           SKY/WX    TMP DP  RH WIND       PRES   REMARKS
BEMIDJI        CLOUDY    17  15  93 SE3       29.93R
HALLOCK        CLOUDY    21  19  93 SW5       29.95S WCI  15
ROSEAU         CLOUDY    19  16  86 CALM      29.94R
WARROAD        CLOUDY    16  12  86 CALM      29.94R
THIEF RVR FALL CLOUDY    23  19  85 CALM      29.96R
CROOKSTON      CLOUDY    27  21  80 CALM      29.97R
FOSSTON        MOCLDY    19  16  86 CALM      29.94R
DETROIT LAKES  CLEAR     27  19  74 SE5       29.93R WCI  21
MOORHEAD       CLOUDY    23  16  74 CALM      29.94R
PARK RAPIDS    CLOUDY    24  17  74 SE7       29.92F WCI  16
MAHNOMEN       MOCLDY    26  16  67 SE3       29.92S
$$
MNZ006-009>011-018-025>026-230400-
   North Central Minnesota

CITY           SKY/WX    TMP DP  RH WIND       PRES   REMARKS
BAUDETTE       CLOUDY    19  16  88 SW6       29.92S WCI  11
FLAG ISLAND    CLOUDY    21  18  86 SW6       29.93R WCI  14
INTL FALLS     PTCLDY    19  14  81 SW5       29.94S WCI  12
WASKISH        CLOUDY    21  18  86 SW3       29.94S
BIG FORK       CLOUDY    21  18  86 S7        29.94S WCI  13
LONGVILLE      CLOUDY    21  18  86 SE6       29.95F WCI  14
GRAND RAPIDS   CLOUDY    19  17  92 S9        29.95F WCI   8
CRANE LAKE     CLOUDY    19  16  86 S5        29.96F WCI  13
ORR            CLOUDY    19  16  86 S3        29.90F
COOK           CLOUDY    19  18  93 S6        29.93F WCI  11
WALKER         CLOUDY    21  17  83 SE3       29.93F
$$
MNZ012-019>021-037-230400-
   Northeast Minnesota

CITY           SKY/WX    TMP DP  RH WIND       PRES   REMARKS
DULUTH         LGT SNOW  20  18  92 SW12      29.96F FOG     WCI   8
ELY            CLOUDY    19  16  86 SW13G18   29.93F WCI   7
HIBBING        CLOUDY    19  16  88 VRB5      29.94F WCI  12
EVELETH        CLOUDY    20  16  84 SW5       29.97F WCI  13
DULUTH HARBOR  LGT SNOW  25  21  86 SW8       30.04F WCI  16
TWO HARBORS    CLOUDY    25  19  80 SW7       29.97F WCI  17
SILVER BAY     CLOUDY    23  18  80 SW6       29.96F WCI  16
GRAND MARAIS     N/A     27  17  66 W10G20    29.98F WCI  17
G MARAIS ARPRT CLOUDY    18  10  73 SW7       29.91F WCI   8
$$
MNZ029>031-032-039>041-046>048-054>057-064-230400-
   West Central Minnesota

CITY           SKY/WX    TMP DP  RH WIND       PRES   REMARKS
FERGUS FALLS   CLOUDY    27  16  63 SE6       29.95R WCI  20
WHEATON        CLOUDY    21  16  79 SE5       29.93F WCI  15
MORRIS         CLOUDY    23  16  74 SE5       29.91S WCI  17
ALEXANDRIA     CLOUDY    24  16  71 SE6       29.91F WCI  17
ELBOW LAKE     FAIR      26  16  67 SE6       29.92S HAZE    WCI  19
WADENA         CLOUDY    25  16  68 SE3       29.92S
GLENWOOD       CLOUDY    23  18  80 E5        29.92S WCI  17
APPLETON       CLOUDY    28  18  64 SE3       29.92S
BENSON         CLOUDY    27  16  63 S5        29.94R WCI  21
ORTONVILLE     CLOUDY    27  18  69 CALM      29.91S
MADISON        CLOUDY    25  18  74 CALM      29.93R
WILLMAR        FAIR      27  19  74 CALM      29.94F
$$
MNZ033>034-036-042>043-049>051-058-059-230400-
   Central Minnesota

CITY           SKY/WX    TMP DP  RH WIND       PRES   REMARKS
ST CLOUD       CLOUDY    29  16  58 SE3       29.96F
SAUK CENTRE    FAIR      25  16  68 E6        29.94S WCI  18
PAYNESVILLE    CLOUDY    28  20  73 E3        29.94S
AITKIN         CLOUDY    21  18  86 E3        29.96S
PINE RIVER     CLOUDY    21  18  86 SE3       29.99S
BRAINERD       CLOUDY    24  17  74 CALM      29.97F
STAPLES        CLOUDY    25  14  63 SE3       29.94R
LONG PRAIRIE   MOCLDY    27  18  69 CALM      29.94
LITTLE FALLS   CLOUDY    28  10  47 SE5       29.95F WCI  23
LITCHFIELD     CLOUDY    28  19  69 CALM      29.94F
BUFFALO        CLOUDY    31  17  55 SE3       29.97F
MAPLE LAKE     CLOUDY    31  20  64 SE3       29.97F
HUTCHINSON     CLOUDY    28  19  68 CALM      29.95F
$$
MNZ037-044-045-052-053-230400-
   East Central Minnesota

CITY           SKY/WX    TMP DP  RH WIND       PRES   REMARKS
PRINCETON      CLOUDY    30  18  59 E3        29.98F
MORA           CLOUDY    25  21  86 E3        30.01F
CAMBRIDGE      CLOUDY    30  18  59 CALM      29.99F
RUSH CITY      FLURRIES  25  21  86 E3        30.01F
MOOSE LAKE     CLOUDY    23  19  86 CALM      29.99F
HINCKLEY       CLOUDY    25  23  93 E5        30.01F WCI  19
CLOQUET        CLOUDY    21  18  86 S3        29.98F
MCGREGOR       CLOUDY    23  19  86 SE6       29.98F WCI  16
$$
MNZ071>073-080-081-089-090-097-098-230400-
   Southwest Minnesota

CITY           SKY/WX    TMP DP  RH WIND       PRES   REMARKS
MONTEVIDEO     CLOUDY    25  16  68 CALM      29.93R
GRANITE FALLS  CLOUDY    28  18  65 SE7       29.94S WCI  21
CANBY          CLEAR     37  22  55 SW10      29.91R
MARSHALL       CLOUDY    36  20  52 W17       29.91F
REDWOOD FALLS  CLOUDY    28  15  58 S7        29.93F WCI  21
OLIVIA         CLOUDY    30  19  64 SE6       29.92F WCI  24
PIPESTONE      CLOUDY    30  18  59 W8        29.92S WCI  23
WINDOM         CLEAR     32  16  51 SW8       29.94F WCI  25
WORTHINGTON    CLEAR     32  19  58 SW15      29.93F WCI  22
JACKSON        CLEAR     32  18  55 SW6       29.95S WCI  26
SLAYTON        CLEAR     32  13  46 SW13      29.93R WCI  22
$$
MNZ065>067-074>077-082>085-091>093-230400-
   South Central Minnesota

CITY           SKY/WX    TMP DP  RH WIND       PRES   REMARKS
MANKATO        CLEAR     32  17  54 S8        29.98F WCI  25
NEW ULM        CLEAR     28  16  59 CALM      29.95F
ST JAMES       CLEAR     30  18  59 S9        29.97F WCI  22
FAIRMONT       CLEAR     31  19  61 S9        29.98F WCI  23
GLENCOE        CLEAR     32  19  60 S5        29.95F WCI  27
FARIBAULT      CLOUDY    34  18  51 S9G16     29.99F WCI  26
OWATONNA       CLOUDY    34  18  51 S9G16     30.00F WCI  26
WASECA         CLOUDY    32  19  59 S12       30.01F WCI  23
ALBERT LEA     CLOUDY    34  14  44 S10G16    30.00F WCI  26
$$
MNZ078>079-086>088-094>096-230400-
   Southeast Minnesota

CITY           SKY/WX    TMP DP  RH WIND       PRES   REMARKS
ROCHESTER      CLOUDY    31  17  56 S16       30.02F WCI  20
RED WING       CLOUDY    32  14  47 S6        30.02F WCI  26
STANTON        CLOUDY    33  19  56 S8        29.98F WCI  26
DODGE CENTER   CLOUDY    30  18  59 S16       30.00F WCI  19
WINONA         CLOUDY    32  18  55 S5        30.07F WCI  27
AUSTIN         CLOUDY    30  16  55 S13       30.02F WCI  20
PRESTON        CLOUDY    30  16  55 S12       30.05F WCI  20
$$
ABBREVIATIONS USED IN REMARKS
   TC - TEMPERATURES IN CELSIUS
  WCI - WIND CHILL INDEX
   HX - HEAT INDEX
  VSB - VISIBILITY
$$



USA.gov is the U.S. government's official web portal to all federal, state and local government web resources and services.